Pasco, WA
on Friday, February 1, 2013

Friday
Previous Day Next Day
Daily Summary
 ActualAverageRecord
Temperature
Mean Temperature °F 37°F  
Max Temperature 56°F 45°F 59°F (2003)
Min Temperature 27°F 29°F -12°F (1996)
Degree Days
Heating Degree Days 23 28  
Month to date heating degree days 23 28  
Since 1 July heating degree days 2934 3179  
Cooling Degree Days 0 0  
Month to date cooling degree days 0 0  
Year to date cooling degree days 0 0  
Moisture
Dew Point 33°F   
Average Humidity 75    
Maximum Humidity 100    
Minimum Humidity 50    
Precipitation
Precipitation 0.00 in in 0.40 in (1997)
Month to date precipitation 0.00  
Year to date precipitation 0.36  
Snow
Snow 0.00 in in in ()
Snow Depth 0.00 in   
Wind
Wind Speed 2 mph   
Max Wind Speed 12 mph   
Max Gust Speed 13 mph   
Visibility 10 miles   
Events     

Key: T is trace of precipitation, MM is missing value
Source: NWS Daily Summary
Time(PST)TemperatureDew PointHumidity Pressure Visibility Wind DirectionWind SpeedGust SpeedPrecipitationEvents Conditions
12:53 AM 39.0°F 35.1°F 86% 30.27 in 10.0 miles SSW 6.9 mph - N/A   Clear
1:53 AM 41.0°F 35.1°F 79% 30.29 in 10.0 miles Calm Calm - N/A   Clear
2:53 AM 30.9°F 30.0°F 96% 30.30 in 10.0 miles Calm Calm - N/A   Clear
3:53 AM 28.9°F 28.0°F 96% 30.30 in 10.0 miles Calm Calm - N/A   Clear
4:53 AM 28.9°F 28.0°F 96% 30.31 in 10.0 miles Calm Calm - N/A   Clear
5:53 AM 28.9°F 27.0°F 92% 30.32 in 10.0 miles Calm Calm - N/A   Clear
7:53 AM 30.0°F 28.0°F 92% 30.36 in 10.0 miles North 3.5 mph - N/A   Clear
8:53 AM 36.0°F 33.1°F 89% 30.38 in 10.0 miles Calm Calm - N/A   Clear
10:53 AM 48.0°F 37.9°F 68% 30.40 in 10.0 miles Calm Calm - N/A   Clear
11:53 AM 50.0°F 36.0°F 59% 30.39 in 10.0 miles Calm Calm - N/A   Clear
1:53 PM 53.1°F 36.0°F 52% 30.38 in 10.0 miles South 3.5 mph - N/A   Clear
2:53 PM 54.0°F 36.0°F 51% 30.38 in 10.0 miles Calm Calm - N/A   Clear
3:53 PM 55.0°F 37.0°F 51% 30.39 in 10.0 miles Calm Calm - N/A   Clear
4:53 PM 50.0°F 37.0°F 61% 30.39 in 10.0 miles NE 3.5 mph - N/A   Clear
5:53 PM 39.9°F 35.1°F 83% 30.40 in 10.0 miles NNW 3.5 mph - N/A   Clear
6:53 PM 37.0°F 34.0°F 89% 30.40 in 10.0 miles North 3.5 mph - N/A   Clear
7:53 PM 34.0°F 32.0°F 92% 30.43 in 10.0 miles NNW 5.8 mph - N/A   Clear
8:53 PM 33.1°F 30.9°F 92% 30.44 in 10.0 miles North 8.1 mph - N/A   Clear
9:53 PM 33.1°F 30.9°F 92% 30.46 in 10.0 miles NW 5.8 mph - N/A   Clear
10:53 PM 32.0°F 30.0°F 92% 30.47 in 10.0 miles Calm Calm - N/A   Clear
11:53 PM 30.0°F 28.0°F 92% 30.49 in 10.0 miles Calm Calm - N/A   Clear
Moon Phase
Feb. 01 Feb. 03 Feb. 10 Feb. 17 Feb. 25
Sunrise:07:19 AM (PST) Moon Rise:11:40 PM (PST)2/1
Sunset:05:01 PM (PST) Moon Set:09:32 AM (PST)2/1

Copyright © 2014 The Weather Underground, Inc.